Location: Lombard
(41.8800°N, 88.0080°W)
Time: 13:40:31
(UTC-05:00)

STRAND 1 - Visible Passes

Search period start: 16 May 2022 00:00
Search period end: 26 May 2022 00:00
Orbit: 767 x 781 km, 98.4° (Epoch: 16 May)

Date Brightness Start Highest point End Pass type
(mag) Time Alt. Az. Time Alt. Az. Time Alt. Az.
16 May ? 21:11:00 10° NNW 21:14:56 23° WNW 21:18:53 10° WSW visible
17 May ? 20:36:10 10° N 20:41:03 44° WNW 20:45:54 10° SW visible
18 May ? 21:43:17 10° NW 21:45:22 12° WNW 21:47:28 10° W visible
19 May ? 21:07:34 10° NNW 21:11:38 24° WNW 21:15:42 10° WSW visible
21 May ? 21:39:41 10° NNW 21:42:04 13° WNW 21:44:28 10° W visible
22 May ? 21:04:07 10° N 21:08:18 26° WNW 21:12:30 10° WSW visible
24 May ? 21:36:06 10° NNW 21:38:45 14° WNW 21:41:25 10° W visible
25 May ? 21:00:41 10° N 21:04:58 27° WNW 21:09:17 10° WSW visible
